NOAA 16 DEB, 42366

Orbit data source: Space-Track

NOAA 16 DEB, 42366 is space debris in SSO originally from a launch on Thu, 21 Sep 2000 UTC launched from the Air Force Western Test Range (AFWTR). Debris objects in space refer to the collection of defunct objects orbiting the Earth. Examples of debris include non-operational satellites, rocket bodies, and fragments generated from explosions, collisions, or faulty payload assembly.

Loading next visibility...
Identifier
42366, 2000-055RJ
Orbit
SSO
Country
Flag of USUS
Related business
Manufacturer
Unknown
Mission
Spacecraft
Bus & Motor
Unknown
Mass
Unknown
Launch date (UTC)
2000-09-21 (25 years ago)
Launch vehicle
Unknown
Launch site
Air Force Western Test Range (AFWTR)
Object type
Payload
Rocket body
Debris
Shape & HBR
Unknown shape, 0.1 m
Radar Cross Section
Small (<0.1 m²)

Expand to show TLE details & history
Last TLE update: 13 hours ago

TLE from 13 hours ago
0 NOAA 16 DEB
1 42366U 00055RJ  25307.93895233  .00066515  00000-0  58659-2 0  9998
2 42366  98.8727 201.6824 0022555 141.7057 218.5768 14.95918296511122
Epoch: 2025-11-03T22:32Z
TLE epoch observation values (Epoch: 2025-11-03T22:32:05.481Z)
Latitude
0.00005°
Longitude
-179.77358°
Altitude
594.821 km
Speed
7.556 km/s
True Right ascension
13h 26m 43s
True Declination
0° 00' 00"
Sunlit
Object was in daylight at epoch
Visualization orbit readout
Latitude
Unknown
Longitude
Unknown
Altitude
Unknown
Speed
Unknown
Apparent Right ascension
Unknown
Apparent Declination
Unknown
Sunlit
N/A
Visualization observer readout
Local Sidereal Time
07:36:13
Azimuth
Unknown
Elevation
Unknown
Doppler factor
Unknown
Orbital elements
Apogee altitude
592.276 km
Perigee altitude
560.904 km
Semi-major axis
6,954.727 km
Eccentricity
0.00226
Inclination
98.8727°
RAAN
201.6824°
Arg. of periapsis
141.7057°
True anomaly
218.41599°
Mean anomaly
218.5768°
Eccentric anomaly
218.49636°
Mean motion
3.74217 °/min
Orbital period
96.2 mins
BSTAR
0.0058659
Loading maneuver chart data...
Computing Atmospheric mass density...
Loading historical data...
Loading historical data...
Loading historical data...
Loading historical data...
Loading historical data...
Loading historical data...
Loading historical data...

Documentation

Showing up to 5 results
|